Weather in Sharjah

United Arab Emirates     25°21′20″N   55°25′40″E
temp.,
°C
wind,
m/s
gust,
m/s
humid.,
%
clouds,
%
prec.,
mm/h
press.,
hPa
HPBL,
m
14 april, wed
wed1401:00+27e332746 0.0 100911
04:00+27e332361 0.0 100812
07:00+29ene222295 0.0 101016
10:00+34nnw1118100 0.0 1011810
13:00+38nw4314100 0.0 10091802
16:00+34nnw7623100 0.0 1008502
19:00+30n2333100 0.0 100819
22:00+28e34316 0.0 100918
15 april, thu
thu1501:00+27nw443493 0.0 100931
04:00+25e225577 0.0 100911
07:00+28s44365 0.0 101096
10:00+35wsw332220 0.0 1011944
13:00+37wnw871889 0.0 10091981
16:00+33w8930100 0.0 1008561
19:00+26w4864100 0.0 1009174
22:00+25w4769100 0.0 1009167
16 april, fri
fri1601:00+24sse2275100 0.0 100812
04:00+23ssw4473100 0.0 100837
07:00+24ssw466761 0.0 1010185
10:00+32wsw66205 0.0 1011892
13:00+33w882191 0.0 1009837
16:00+30w8928100 0.0 1008578
19:00+25w71059100 0.0 1010329
22:00+22sw44680 0.0 101141
17 april, sat
sat1701:00+21sw44690 0.0 100944
04:00+20ssw44710 0.0 100936
07:00+21s45635 0.0 1011133
10:00+29wsw4534100 0.0 1012958
13:00+32w77289 0.0 1011940
16:00+30w663216 0.0 1010786
19:00+24wsw46667 0.0 101182
22:00+22sw347321 0.0 101330
18 april, sun
sun1801:00+21s33765 0.0 101227
04:00+20s4463100 0.0 101236
07:00+22s4650100 0.0 1013149
10:00+30wsw553541 0.0 1014803
13:00+32w7830100 0.0 1012926
16:00+30w783991 0.0 1011699
19:00+24wsw467198 0.0 101181
22:00+23sw3381100 0.0 101226